[[{"header":{"parameterUnit":"m.s-1","parameterCategory":2,"la1":30.2992,"la2":30.254,"lo1":-89.0895,"lo2":-89.0443,"dy":0.0025,"dx":0.0025,"nx":19,"ny":19,"refTime":"2026-05-24T09:00:00:Z","depth":"0","parameterNumber":2,"parameterNumberName":"U-component_of_CURRENTS"},"data":[0,0,0,0.2669,0.2669,0.2743,0.2744,0.2861,0.2861,0,0,0,0,0,0,0,0,0,0,0,0.2642,0.2641,0.2669,0.267,0.2743,0.2744,0.2861,0.2861,0,0,0,0,0,0,0,0,0,0,0,0.2642,0.2641,0.2641,0.267,0.2743,0.2744,0.286,0.2805,0,0,0,0,0,0,0,0,0,0,0.2733,0.2708,0.2641,0.2641,0.267,0.2743,0.2744,0.2803,0.2809,0.2825,0,0.2817,0,0.2831,0.2867,0.2868,0,0,0,0.2696,0.2703,0.2705,0.2641,0.267,0.2743,0.2717,0.2806,0.2813,0.2833,0.2818,0.2823,0.2833,0.2868,0.2868,0.2921,0.2921,0,0,0.2692,0.268,0.27,0.2709,0.2664,0.2715,0.2719,0.281,0.2818,0.2819,0.2826,0.2835,0.2868,0.2869,0.2921,0.2921,0,0,0,0.2662,0.2677,0.2677,0.2704,0.2709,0.2716,0.2722,0.2814,0.2808,0.2827,0.2836,0.2869,0.287,0.2921,0.2921,0.2944,0,0,0,0.2661,0.2658,0.2675,0.2673,0.2707,0.2763,0.2723,0.2802,0.2813,0.2836,0.2869,0.2871,0.2922,0.2921,0.2944,0.2937,0,0,0,0.2643,0.2657,0.2653,0.2671,0.269,0.2761,0.2763,0.2805,0.2817,0.2868,0.2871,0.2922,0.2921,0.2943,0.2937,0.2984,0,0,0,0.2647,0.264,0.2652,0.265,0.2688,0.2729,0.2763,0.281,0.285,0.2869,0.2922,0.2921,0.2943,0.2937,0.2984,0.3103,0.3117,0,0,0.264,0.2639,0.2636,0.2649,0.2664,0.2722,0.2774,0.2836,0.2852,0.2898,0.29,0.2944,0.2937,0.2984,0.3092,0.3107,0,0,0,0.2636,0.2633,0.2639,0.2651,0.2682,0.2744,0.2807,0.2837,0.2891,0.2869,0.2934,0.2928,0.2958,0.3028,0.3039,0.3024,0.292,0.2921,0.2921,0.2632,0.2636,0.2639,0.2656,0.2689,0.2769,0.2823,0.2875,0.2895,0.2913,0.294,0.2977,0.3051,0.3061,0.3044,0.294,0.294,0.294,0.294,0.2631,0.2628,0.2644,0.2646,0.2696,0.2748,0.2845,0.2881,0.2958,0.2946,0.2976,0.3038,0.3075,0.3052,0.2942,0.2941,0.2941,0.2941,0.2941,0.2648,0.2639,0.2638,0.264,0.2673,0.2737,0.2803,0.2881,0.2959,0.2998,0.3102,0.3103,0.3091,0.3029,0.3029,0.303,0.303,0.303,0.303,0.2652,0.2648,0.2631,0.2633,0.2629,0.2671,0.2784,0.2864,0.304,0.3124,0.3126,0.3105,0.3005,0.3011,0.3033,0.3032,0.3032,0.3032,0.3032,0.2623,0.2633,0.2611,0.2598,0.2591,0.2623,0.2744,0.2973,0.3085,0.32,0.3276,0.321,0.3219,0.3211,0.3222,0.3297,0.3297,0.3297,0.3297,0.2596,0.2604,0.256,0.254,0.2548,0.2598,0.2744,0.2968,0.3246,0.3377,0.3373,0.3373,0.3363,0.3377,0.3365,0.3378,0.349,0.349,0.349,0.254,0.255,0.2503,0.2505,0.2509,0.258,0.2703,0.2884,0.3299,0.3489,0.3326,0.3318,0.3302,0.3288,0.3296,0.3281,0.3296,0,0]},{"header":{"parameterUnit":"m.s-1","parameterCategory":2,"la1":30.2992,"la2":30.254,"lo1":-89.0895,"lo2":-89.0443,"dy":0.0025,"dx":0.0025,"nx":19,"ny":19,"refTime":"2026-05-24T09:00:00:Z","depth":"0","parameterNumber":3,"parameterNumberName":"V-component_of_CURRENTS"},"data":[0,0,0,-0.0499,-0.0501,-0.0538,-0.0538,-0.061,-0.061,0,0,0,0,0,0,0,0,0,0,0,-0.0494,-0.0495,-0.0499,-0.0501,-0.0538,-0.0538,-0.0609,-0.061,0,0,0,0,0,0,0,0,0,0,0,-0.0494,-0.0495,-0.0496,-0.0501,-0.0538,-0.0538,-0.0609,-0.0571,0,0,0,0,0,0,0,0,0,0,-0.053,-0.0499,-0.0495,-0.0496,-0.0501,-0.0538,-0.0538,-0.0569,-0.0574,-0.0605,0,-0.0631,0,-0.0629,-0.0617,-0.0618,0,0,0,-0.0484,-0.0495,-0.0537,-0.0496,-0.0502,-0.0538,-0.0516,-0.0571,-0.0577,-0.0611,-0.0632,-0.0634,-0.063,-0.0618,-0.0619,-0.0666,-0.0666,0,0,-0.0482,-0.0466,-0.0534,-0.0542,-0.0539,-0.0515,-0.0518,-0.0574,-0.0573,-0.0632,-0.0635,-0.0631,-0.0619,-0.0619,-0.0667,-0.0666,0,0,0,-0.0487,-0.0464,-0.0503,-0.0539,-0.0548,-0.0517,-0.052,-0.057,-0.0593,-0.0636,-0.0632,-0.0619,-0.0621,-0.0667,-0.0667,-0.0605,0,0,0,-0.0485,-0.0469,-0.0503,-0.0488,-0.0547,-0.0548,-0.0514,-0.0589,-0.0595,-0.0631,-0.0619,-0.0622,-0.0667,-0.0667,-0.0607,-0.0549,0,0,0,-0.0487,-0.0467,-0.0488,-0.0488,-0.0514,-0.0548,-0.0571,-0.059,-0.0594,-0.0618,-0.0622,-0.0667,-0.0667,-0.0609,-0.0554,-0.0458,0,0,0,-0.0446,-0.0476,-0.0488,-0.0511,-0.0515,-0.0545,-0.057,-0.0581,-0.0598,-0.062,-0.0667,-0.0667,-0.061,-0.0557,-0.0461,-0.0237,-0.0201,0,0,-0.046,-0.0476,-0.049,-0.0503,-0.052,-0.0537,-0.0534,-0.0567,-0.0599,-0.0649,-0.065,-0.0606,-0.0554,-0.0458,-0.0204,-0.0168,0,0,0,-0.0479,-0.0482,-0.0493,-0.0503,-0.0535,-0.0517,-0.0554,-0.0558,-0.0572,-0.0612,-0.0612,-0.058,-0.0522,-0.0396,-0.0368,-0.0376,-0.0664,-0.0664,-0.0664,-0.0438,-0.0459,-0.0462,-0.0485,-0.0496,-0.0505,-0.0483,-0.0494,-0.0561,-0.0545,-0.0535,-0.0425,-0.0292,-0.0268,-0.0282,-0.0558,-0.0558,-0.0558,-0.0558,-0.0422,-0.0416,-0.042,-0.043,-0.0429,-0.0425,-0.0419,-0.0431,-0.0394,-0.0474,-0.042,-0.0344,-0.0233,-0.0259,-0.0554,-0.0554,-0.0555,-0.0555,-0.0556,-0.038,-0.038,-0.0389,-0.0379,-0.0346,-0.0355,-0.0263,-0.0294,-0.0308,-0.0267,-0.0116,-0.0114,-0.0127,-0.0246,-0.0245,-0.0245,-0.0244,-0.0244,-0.0243,-0.0335,-0.0345,-0.0322,-0.0317,-0.0285,-0.0229,-0.0172,-0.0102,-0.0004,0.0003,0.0005,-0.0069,-0.0328,-0.0329,-0.0233,-0.0235,-0.0236,-0.0237,-0.0238,-0.0288,-0.0293,-0.0253,-0.0225,-0.014,0.0028,0.0044,0.0281,0.0322,0.0431,0.0338,0.0163,0.0182,0.0161,0.0172,0.0393,0.0393,0.0393,0.0393,-0.0241,-0.0247,-0.0162,-0.009,0.0019,0.0152,0.0522,0.072,0.0739,0.0747,0.0586,0.0539,0.0514,0.0544,0.0514,0.0529,0.0835,0.0835,0.0835,-0.0194,-0.0175,-0.0089,-0.0026,0.0106,0.0353,0.0817,0.1217,0.1126,0.0838,0.0529,0.051,0.0413,0.0374,0.039,0.0349,0.0359,0,0]}],[{"header":{"parameterUnit":"m.s-1","parameterCategory":2,"la1":30.2992,"la2":30.254,"lo1":-89.0895,"lo2":-89.0443,"dy":0.0025,"dx":0.0025,"nx":19,"ny":19,"refTime":"2026-05-24T09:00:00:Z","depth":"2","parameterNumber":2,"parameterNumberName":"U-component_of_CURRENTS"},"data":[0,0,0,0.0624,0.0627,0.0751,0.0751,0.0812,0.0812,0,0,0,0,0,0,0,0,0,0,0,0.059,0.0591,0.0624,0.0627,0.0751,0.0751,0.0812,0.0812,0,0,0,0,0,0,0,0,0,0,0,0.0589,0.0591,0.0592,0.0627,0.075,0.0751,0.0812,0.0745,0,0,0,0,0,0,0,0,0,0,0.0638,0.0636,0.059,0.0592,0.0628,0.075,0.0751,0.0743,0.0749,0.0724,0,0.075,0,0.0772,0.0813,0.0813,0,0,0,0.0637,0.0631,0.0642,0.0592,0.0629,0.075,0.0698,0.0747,0.0754,0.0732,0.0751,0.0753,0.0773,0.0813,0.0813,0.0953,0.0954,0,0,0.063,0.0632,0.0637,0.0646,0.0666,0.0694,0.0701,0.0752,0.0772,0.0751,0.0755,0.0774,0.0813,0.0813,0.0951,0.0953,0,0,0,0.0604,0.0627,0.064,0.0643,0.0668,0.0697,0.0706,0.0771,0.0769,0.0756,0.0774,0.0813,0.0813,0.095,0.0952,0.1088,0,0,0,0.06,0.061,0.0636,0.0641,0.0668,0.0739,0.0723,0.0766,0.0773,0.0774,0.0813,0.0813,0.0948,0.0951,0.1081,0.1124,0,0,0,0.0583,0.0609,0.062,0.0641,0.0687,0.0739,0.0743,0.0769,0.0782,0.0813,0.0813,0.0947,0.095,0.1074,0.1114,0.1251,0,0,0,0.0584,0.0584,0.0621,0.0643,0.0685,0.0753,0.0743,0.0816,0.0851,0.0813,0.0948,0.0952,0.1072,0.1108,0.1244,0.1223,0.1255,0,0,0.0568,0.0583,0.0593,0.0628,0.0697,0.0736,0.0844,0.0892,0.0894,0.0921,0.0926,0.1083,0.1113,0.1249,0.142,0.1446,0,0,0,0.0577,0.0598,0.0623,0.0685,0.0737,0.0865,0.0906,0.0962,0.1076,0.0929,0.1114,0.1129,0.1211,0.1184,0.1206,0.0968,0.0967,0.0967,0.0967,0.057,0.0609,0.067,0.0747,0.0818,0.0961,0.1077,0.117,0.1133,0.124,0.1264,0.1489,0.1464,0.1479,0.1299,0.13,0.13,0.1301,0.1301,0.059,0.0647,0.0738,0.0816,0.0958,0.1072,0.1255,0.1316,0.1506,0.1429,0.1504,0.1357,0.1511,0.1313,0.131,0.1309,0.1308,0.1307,0.1306,0.0619,0.0657,0.0717,0.0861,0.1035,0.1179,0.1382,0.1505,0.1625,0.173,0.1718,0.1714,0.1565,0.1787,0.1788,0.1789,0.1789,0.179,0.179,0.0637,0.0693,0.0778,0.0921,0.103,0.121,0.1474,0.1628,0.1822,0.1868,0.1868,0.1653,0.1637,0.1594,0.1803,0.1801,0.1799,0.1798,0.1797,0.0681,0.0701,0.0809,0.0903,0.1118,0.1289,0.1496,0.1822,0.2,0.2114,0.196,0.1951,0.1908,0.1888,0.1851,0.2115,0.2115,0.2115,0.2115,0.0701,0.072,0.0851,0.0965,0.1129,0.1322,0.1612,0.1776,0.1957,0.1879,0.1888,0.1737,0.1732,0.1667,0.1652,0.1604,0.1805,0.1804,0.1803,0.0728,0.0767,0.0849,0.0957,0.113,0.1363,0.161,0.1662,0.1608,0.1778,0.1706,0.2119,0.1917,0.1901,0.1808,0.1781,0.1708,0,0]},{"header":{"parameterUnit":"m.s-1","parameterCategory":2,"la1":30.2992,"la2":30.254,"lo1":-89.0895,"lo2":-89.0443,"dy":0.0025,"dx":0.0025,"nx":19,"ny":19,"refTime":"2026-05-24T09:00:00:Z","depth":"2","parameterNumber":3,"parameterNumberName":"V-component_of_CURRENTS"},"data":[0,0,0,0.0173,0.0172,0.0134,0.0134,0.0101,0.01,0,0,0,0,0,0,0,0,0,0,0,0.0191,0.019,0.0173,0.0172,0.0134,0.0134,0.0101,0.01,0,0,0,0,0,0,0,0,0,0,0,0.0191,0.0191,0.019,0.0172,0.0134,0.0134,0.0101,0.0126,0,0,0,0,0,0,0,0,0,0,0.0161,0.0163,0.0191,0.019,0.0172,0.0134,0.0134,0.0127,0.0124,0.0122,0,0.0117,0,0.0106,0.0098,0.0098,0,0,0,0.0173,0.0165,0.0166,0.019,0.0171,0.0134,0.0151,0.0126,0.0123,0.0119,0.0117,0.0115,0.0105,0.0098,0.0098,0.0137,0.0137,0,0,0.0175,0.0173,0.0168,0.0164,0.0163,0.0153,0.015,0.0124,0.0115,0.0117,0.0114,0.0105,0.0098,0.0098,0.0136,0.0137,0,0,0,0.0181,0.0174,0.0175,0.0166,0.0156,0.0152,0.0149,0.0116,0.0119,0.0114,0.0104,0.0098,0.0098,0.0135,0.0136,0.019,0,0,0,0.0182,0.0178,0.0176,0.0172,0.0156,0.013,0.0142,0.0121,0.0118,0.0104,0.0098,0.0097,0.0135,0.0136,0.0187,0.0241,0,0,0,0.0192,0.0178,0.0177,0.0173,0.0156,0.013,0.0131,0.012,0.0112,0.0098,0.0097,0.0134,0.0136,0.0184,0.0235,0.0301,0,0,0,0.0187,0.021,0.0177,0.0204,0.0156,0.0177,0.0131,0.0122,0.0114,0.0098,0.0135,0.0136,0.0184,0.0232,0.0297,0.0419,0.0447,0,0,0.0225,0.0214,0.0237,0.0207,0.023,0.0182,0.0216,0.0171,0.014,0.0143,0.0143,0.0188,0.0235,0.03,0.0507,0.0532,0,0,0,0.0256,0.0259,0.0268,0.0262,0.0265,0.0274,0.0219,0.0214,0.0205,0.0141,0.0204,0.0233,0.0272,0.0338,0.0358,0.0144,0.0143,0.0143,0.0143,0.0273,0.0282,0.0314,0.032,0.0332,0.0321,0.0345,0.0326,0.0261,0.0271,0.0287,0.0393,0.0463,0.048,0.0283,0.0284,0.0284,0.0284,0.0284,0.033,0.0356,0.0351,0.0376,0.0383,0.0392,0.0437,0.0408,0.0446,0.037,0.0404,0.0405,0.0505,0.0289,0.0288,0.0287,0.0287,0.0286,0.0286,0.0349,0.0368,0.0362,0.0394,0.0422,0.0438,0.0551,0.054,0.0511,0.055,0.0608,0.0608,0.0438,0.0546,0.0546,0.0547,0.0547,0.0547,0.0548,0.0375,0.0384,0.0401,0.0426,0.0457,0.0523,0.061,0.069,0.0747,0.0712,0.0713,0.0482,0.0473,0.0455,0.0556,0.0555,0.0554,0.0553,0.0552,0.0432,0.0409,0.0461,0.0489,0.0599,0.0772,0.083,0.1013,0.1029,0.1097,0.0817,0.0807,0.0812,0.0796,0.0786,0.0967,0.0967,0.0967,0.0967,0.0459,0.0456,0.0533,0.0634,0.0776,0.0913,0.121,0.1223,0.1129,0.0902,0.0903,0.0836,0.0824,0.0822,0.0805,0.0791,0.0974,0.0973,0.0973,0.0505,0.0519,0.0596,0.0684,0.0871,0.1104,0.1403,0.1381,0.0945,0.0956,0.073,0.1002,0.0907,0.0886,0.088,0.0855,0.0832,0,0]}],[{"header":{"parameterUnit":"m.s-1","parameterCategory":2,"la1":30.2992,"la2":30.254,"lo1":-89.0895,"lo2":-89.0443,"dy":0.0025,"dx":0.0025,"nx":19,"ny":19,"refTime":"2026-05-24T09:00:00:Z","depth":"4","parameterNumber":2,"parameterNumberName":"U-component_of_CURRENTS"},"data":[0,0,0,0.0249,0.0251,0.032,0.032,0.0261,0.0261,0,0,0,0,0,0,0,0,0,0,0,0.0193,0.0194,0.0248,0.0252,0.032,0.032,0.0261,0.0261,0,0,0,0,0,0,0,0,0,0,0,0.0193,0.0194,0.0195,0.0252,0.032,0.032,0.0261,0.0235,0,0,0,0,0,0,0,0,0,0,0.0183,0.0176,0.0193,0.0195,0.0253,0.032,0.032,0.0235,0.0237,0.0202,0,0.0225,0,0.0273,0.0257,0.0257,0,0,0,0.0208,0.0175,0.02,0.0195,0.0254,0.032,0.0277,0.0237,0.0239,0.0204,0.0225,0.0225,0.0272,0.0257,0.0257,0.0217,0.0217,0,0,0.0204,0.0193,0.0199,0.0202,0.0286,0.0275,0.028,0.0239,0.024,0.0225,0.0225,0.0271,0.0257,0.0256,0.0217,0.0217,0,0,0,0.0223,0.019,0.0217,0.0202,0.0244,0.0278,0.0283,0.0241,0.0253,0.0225,0.027,0.0256,0.0256,0.0217,0.0217,0.0262,0,0,0,0.0218,0.0205,0.0216,0.0208,0.0246,0.0269,0.0285,0.0254,0.0253,0.027,0.0256,0.0255,0.0217,0.0217,0.0261,0.0308,0,0,0,0.0187,0.0203,0.0216,0.0208,0.0262,0.0271,0.0279,0.0255,0.0282,0.0257,0.0255,0.0217,0.0217,0.026,0.0305,0.0376,0,0,0,0.0163,0.0191,0.0215,0.0257,0.0262,0.0289,0.028,0.0272,0.0249,0.0256,0.0217,0.0217,0.026,0.0303,0.0373,0.031,0,0,0,0.0184,0.0194,0.0218,0.0243,0.03,0.0275,0.0296,0.0257,0.0234,0.0212,0.0212,0.0261,0.0305,0.0375,0.0298,0,0,0,0,0.0215,0.0232,0.0249,0.0297,0.0316,0.0324,0.0293,0.0282,0.026,0.0234,0.0245,0.0271,0.0315,0.0267,0.0216,0.0216,0.0216,0.0216,0.0216,0.0205,0.0244,0.0286,0.0324,0.0339,0.034,0.0336,0.0312,0.0269,0.0266,0.0294,0.0363,0.031,0.0264,0.0264,0.0264,0.0264,0.0264,0.0265,0.0222,0.025,0.0303,0.0361,0.0388,0.0394,0.0385,0.0363,0.0386,0.0328,0.0368,0.0299,0.0269,0.0268,0.0267,0.0267,0.0266,0.0266,0.0266,0.0199,0.0223,0.0277,0.0361,0.0423,0.0436,0.0475,0.047,0.0448,0.0474,0.0439,0.0415,0.0431,0.0493,0.0493,0.0494,0.0494,0.0495,0.0495,0.0152,0.0209,0.0266,0.0361,0.0427,0.0484,0.0536,0.0532,0.0521,0.0507,0.05,0.0441,0.0434,0.0444,0.0503,0.0501,0.05,0.05,0.0499,0.0125,0.0158,0.0234,0.031,0.0443,0.0481,0.056,0.0567,0.0588,0.0567,0.0531,0.0527,0.0521,0.0512,0.0525,0.061,0.061,0.0609,0,0.0096,0.0118,0.0227,0.0329,0.0401,0.048,0.0489,0.0494,0.0515,0.0535,0.0528,0.0485,0.0482,0.0468,0.046,0.047,0,0,0,0.0077,0.0116,0.0188,0.0303,0.04,0.043,0.048,0.0486,0.0559,0.0513,0.0596,0.06,0.0425,0.0526,0.0509,0.05,0.0517,0,0]},{"header":{"parameterUnit":"m.s-1","parameterCategory":2,"la1":30.2992,"la2":30.254,"lo1":-89.0895,"lo2":-89.0443,"dy":0.0025,"dx":0.0025,"nx":19,"ny":19,"refTime":"2026-05-24T09:00:00:Z","depth":"4","parameterNumber":3,"parameterNumberName":"V-component_of_CURRENTS"},"data":[0,0,0,0.0408,0.0408,0.0371,0.037,0.0178,0.0176,0,0,0,0,0,0,0,0,0,0,0,0.0398,0.0399,0.0407,0.0408,0.0371,0.037,0.0178,0.0176,0,0,0,0,0,0,0,0,0,0,0,0.0398,0.0399,0.0399,0.0408,0.0371,0.037,0.0178,0.0232,0,0,0,0,0,0,0,0,0,0,0.0282,0.032,0.0399,0.0399,0.0408,0.0371,0.037,0.0236,0.0229,0.0167,0,0.0179,0,0.0198,0.0164,0.0163,0,0,0,0.0365,0.0327,0.0318,0.0399,0.0409,0.0371,0.0375,0.0233,0.0224,0.0157,0.0176,0.0171,0.0195,0.0163,0.0162,0.0008,0.0007,0,0,0.0367,0.038,0.0325,0.0314,0.0418,0.0377,0.0375,0.0229,0.0224,0.0176,0.0167,0.0192,0.0161,0.016,0.0008,0.0007,0,0,0,0.0402,0.0382,0.0379,0.032,0.034,0.0377,0.0374,0.023,0.023,0.0166,0.019,0.016,0.0158,0.0008,0.0008,0.0034,0,0,0,0.0401,0.0406,0.038,0.0385,0.0344,0.0309,0.0379,0.0239,0.0225,0.0191,0.016,0.0156,0.0009,0.0008,0.0034,0.0051,0,0,0,0.0397,0.0406,0.0408,0.0387,0.0394,0.0313,0.0303,0.0237,0.0241,0.0163,0.0156,0.0009,0.0008,0.0034,0.0051,0.0018,0,0,0,0.04,0.04,0.0408,0.0403,0.0395,0.0347,0.0305,0.0241,0.0175,0.0159,0.0009,0.0008,0.0034,0.0051,0.0018,0.0062,0,0,0,0.0397,0.04,0.0392,0.0399,0.0384,0.0348,0.0287,0.0184,0.0141,0.0039,0.0036,0.0034,0.0051,0.0018,0.0016,0,0,0,0,0.0387,0.0387,0.0378,0.0378,0.0349,0.03,0.0224,0.0178,0.0086,0.0111,0.0011,0.002,-0.0002,0.0024,0.0004,0.0004,0.0004,0.0004,0.0004,0.0388,0.038,0.0369,0.035,0.0318,0.0249,0.0185,0.0106,0.0069,0.0035,0.0024,-0.0005,0.0022,0.0,0.0001,0.0001,0.0001,0.0001,0.0001,0.0372,0.0365,0.0358,0.0352,0.0314,0.0261,0.0145,0.0105,0.0018,0.0014,-0.0008,0.003,0.0003,0.0003,0.0002,0.0002,0.0002,0.0002,0.0002,0.0368,0.0366,0.0376,0.0371,0.0346,0.0281,0.0206,0.0131,0.0046,0.0019,0.002,-0.0004,0.0013,0.0005,0.0005,0.0005,0.0005,0.0005,0.0005,0.0362,0.0368,0.0385,0.0387,0.0401,0.0357,0.0251,0.0169,0.0073,0.0048,0.0026,-0.0004,-0.0004,0.0011,0.0004,0.0004,0.0004,0.0004,0.0004,0.0339,0.0366,0.0383,0.0411,0.0414,0.0379,0.0312,0.0173,0.0088,0.0024,0.0041,0.004,0.0028,0.0026,0.0042,0.0044,0.0045,0.0045,0,0.0333,0.034,0.0381,0.0411,0.0395,0.0371,0.0274,0.0173,0.0074,0.0103,0.0035,0.0059,0.0057,0.0046,0.0045,0.0065,0,0,0,0.0309,0.0328,0.0358,0.0394,0.0394,0.028,0.0228,0.0197,0.0139,0.0055,0.0059,0.0055,-0.0003,0.0,-0.0023,-0.0023,-0.0001,0,0]}]]